• Em Portugal
  • Lista de países
  • Para 7 dias
  • Temperatura da água
  • Mapas de satélite
  • Mapa do tempo
  • Widgets de tempo
  • user-avatar
    Iniciar Sessão

    Previsão horária em Wegry

    Hoje, 21 Outubro, Domingo

    Tempo Temperatura Precipitação Vento Pressão Humidade
    00:00 +8°C° 0 mm 1 m/s 765 mmHg 92%
    01:00 +8°C° 0 mm 1 m/s 765 mmHg 93%
    02:00 +8°C° 0 mm 1 m/s 765 mmHg 93%
    03:00 +7°C° 0 mm 1 m/s 766 mmHg 94%
    04:00 +7°C° 0 mm 1 m/s 766 mmHg 94%
    05:00 +7°C° 0 mm 1 m/s 766 mmHg 94%
    06:00 +7°C° 0 mm 1 m/s 766 mmHg 94%
    07:00 +7°C° 0 mm 1 m/s 766 mmHg 94%
    08:00 +9°C° 0 mm 1 m/s 767 mmHg 87%
    09:00 +9°C° 0 mm 2 m/s 767 mmHg 81%
    10:00 +12°C° 0 mm 2 m/s 767 mmHg 74%
    11:00 +13°C° 0 mm 2 m/s 767 mmHg 69%
    12:00 +14°C° 0 mm 2 m/s 767 mmHg 64%
    13:00 +15°C° 0 mm 2 m/s 767 mmHg 59%
    14:00 +14°C° 0 mm 2 m/s 767 mmHg 62%
    15:00 +14°C° 0 mm 2 m/s 767 mmHg 64%
    16:00 +13°C° 0 mm 1 m/s 767 mmHg 67%
    17:00 +12°C° 0 mm 2 m/s 767 mmHg 71%
    18:00 +10°C° 0 mm 2 m/s 767 mmHg 75%
    19:00 +9°C° 0 mm 2 m/s 767 mmHg 79%
    20:00 +9°C° 0 mm 2 m/s 766 mmHg 81%
    21:00 +8°C° 0 mm 2 m/s 766 mmHg 83%
    22:00 +8°C° 0 mm 3 m/s 766 mmHg 85%
    23:00 +8°C° 0 mm 3 m/s 766 mmHg 86%

    Amanhã, 22 Outubro, Segunda-feira

    Tempo Temperatura Precipitação Vento Pressão Humidade
    00:00 +8°C° 0 mm 3 m/s 766 mmHg 87%
    01:00 +7°C° 0 mm 3 m/s 766 mmHg 88%
    02:00 +6°C° 0 mm 4 m/s 765 mmHg 88%
    03:00 +6°C° 0 mm 4 m/s 765 mmHg 89%
    04:00 +6°C° 0 mm 4 m/s 765 mmHg 89%
    05:00 +6°C° 0 mm 4 m/s 765 mmHg 89%
    06:00 +6°C° 0 mm 4 m/s 764 mmHg 89%
    07:00 +6°C° 0 mm 4 m/s 764 mmHg 89%
    08:00 +7°C° 0 mm 5 m/s 764 mmHg 83%
    09:00 +8°C° 0 mm 5 m/s 764 mmHg 78%
    10:00 +10°C° 0 mm 5 m/s 763 mmHg 72%
    11:00 +9°C° 0.3 mm 5 m/s 763 mmHg 75%
    12:00 +9°C° 0.3 mm 5 m/s 763 mmHg 78%
    13:00 +9°C° 0.3 mm 5 m/s 763 mmHg 81%
    14:00 +9°C° 0.5 mm 5 m/s 763 mmHg 82%
    15:00 +9°C° 0.5 mm 5 m/s 763 mmHg 83%
    16:00 +9°C° 0.5 mm 5 m/s 763 mmHg 84%
    17:00 +8°C° 0 mm 4 m/s 763 mmHg 83%
    18:00 +7°C° 0 mm 4 m/s 763 mmHg 81%
    19:00 +7°C° 0 mm 4 m/s 763 mmHg 80%
    20:00 +6°C° 0 mm 4 m/s 764 mmHg 80%
    21:00 +6°C° 0 mm 4 m/s 764 mmHg 79%
    22:00 +5°C° 0 mm 4 m/s 764 mmHg 79%
    23:00 +5°C° 0 mm 4 m/s 764 mmHg 80%

    Depois de amanhã, 23 Outubro, Terça-feira

    Tempo Temperatura Precipitação Vento Pressão Humidade
    00:00 +5°C° 0 mm 4 m/s 764 mmHg 81%
    01:00 +4°C° 0 mm 4 m/s 763 mmHg 82%
    02:00 +4°C° 0 mm 4 m/s 763 mmHg 83%
    03:00 +4°C° 0 mm 4 m/s 762 mmHg 84%
    04:00 +3°C° 0 mm 5 m/s 761 mmHg 84%
    05:00 +4°C° 0.1 mm 6 m/s 760 mmHg 83%
    06:00 +4°C° 0.1 mm 6 m/s 760 mmHg 82%
    07:00 +4°C° 0.1 mm 7 m/s 759 mmHg 80%
    08:00 +5°C° 0.4 mm 8 m/s 757 mmHg 79%
    09:00 +5°C° 0.4 mm 9 m/s 756 mmHg 78%
    10:00 +5°C° 0.4 mm 10 m/s 755 mmHg 77%
    11:00 +6°C° 0.6 mm 10 m/s 753 mmHg 77%
    12:00 +6°C° 0.6 mm 11 m/s 752 mmHg 78%
    13:00 +6°C° 0.6 mm 11 m/s 750 mmHg 78%
    14:00 +7°C° 1.3 mm 11 m/s 749 mmHg 79%
    15:00 +7°C° 1.3 mm 11 m/s 747 mmHg 80%
    16:00 +7°C° 1.3 mm 11 m/s 746 mmHg 81%
    17:00 +8°C° 2.1 mm 10 m/s 744 mmHg 83%
    18:00 +8°C° 2.1 mm 10 m/s 743 mmHg 84%
    19:00 +10°C° 2.1 mm 9 m/s 742 mmHg 85%
    20:00 +8°C° 0.7 mm 9 m/s 742 mmHg 83%
    21:00 +9°C° 0.7 mm 8 m/s 742 mmHg 80%
    22:00 +9°C° 0.7 mm 7 m/s 742 mmHg 77%
    23:00 +8°C° 0.5 mm 7 m/s 742 mmHg 78%

    24 Outubro, Quarta-feira

    Tempo Temperatura Precipitação Vento Pressão Humidade
    00:00 +7°C° 0.5 mm 8 m/s 743 mmHg 78%
    01:00 +6°C° 0.5 mm 8 m/s 743 mmHg 78%
    02:00 +5°C° 0.5 mm 8 m/s 744 mmHg 72%
    03:00 +5°C° 0.5 mm 9 m/s 744 mmHg 66%
    04:00 +3°C° 0.5 mm 9 m/s 745 mmHg 60%
    05:00 +3°C° 0.1 mm 9 m/s 746 mmHg 60%
    06:00 +2°C° 0.1 mm 9 m/s 746 mmHg 60%
    07:00 +2°C° 0.1 mm 9 m/s 747 mmHg 61%
    08:00 +3°C° 0.2 mm 10 m/s 747 mmHg 59%
    09:00 +3°C° 0.2 mm 10 m/s 748 mmHg 56%
    10:00 +4°C° 0.2 mm 11 m/s 749 mmHg 54%
    11:00 +4°C° 0.2 mm 11 m/s 749 mmHg 54%
    12:00 +4°C° 0.2 mm 11 m/s 749 mmHg 54%
    13:00 +6°C° 0.2 mm 11 m/s 750 mmHg 53%
    14:00 +4°C° 0.2 mm 11 m/s 750 mmHg 55%
    15:00 +5°C° 0.2 mm 10 m/s 751 mmHg 57%
    16:00 +5°C° 0.2 mm 10 m/s 751 mmHg 58%
    17:00 +5°C° 0.1 mm 9 m/s 751 mmHg 60%
    18:00 +3°C° 0.1 mm 9 m/s 752 mmHg 61%
    19:00 +4°C° 0.1 mm 8 m/s 752 mmHg 62%
    20:00 +4°C° 0 mm 8 m/s 753 mmHg 63%
    21:00 +4°C° 0 mm 8 m/s 753 mmHg 64%
    22:00 +4°C° 0 mm 7 m/s 753 mmHg 65%
    23:00 +4°C° 0 mm 7 m/s 754 mmHg 65%

    25 Outubro, Quinta-feira

    Tempo Temperatura Precipitação Vento Pressão Humidade
    00:00 +3°C° 0 mm 6 m/s 754 mmHg 66%
    01:00 +3°C° 0 mm 6 m/s 754 mmHg 67%
    02:00 +3°C° 0 mm 6 m/s 754 mmHg 67%
    03:00 +3°C° 0 mm 6 m/s 754 mmHg 68%
    04:00 +2°C° 0 mm 5 m/s 754 mmHg 68%
    05:00 +2°C° 0 mm 5 m/s 753 mmHg 68%
    06:00 +2°C° 0 mm 5 m/s 753 mmHg 68%
    07:00 +3°C° 0 mm 5 m/s 753 mmHg 68%
    08:00 +3°C° 0.4 mm 5 m/s 752 mmHg 74%
    09:00 +4°C° 0.4 mm 6 m/s 751 mmHg 81%
    10:00 +5°C° 0.4 mm 6 m/s 750 mmHg 87%
    11:00 +6°C° 0.4 mm 7 m/s 749 mmHg 84%
    12:00 +9°C° 0.4 mm 8 m/s 749 mmHg 81%
    13:00 +10°C° 0.4 mm 9 m/s 748 mmHg 78%
    14:00 +10°C° 0.2 mm 9 m/s 747 mmHg 78%
    15:00 +10°C° 0.2 mm 9 m/s 747 mmHg 79%
    16:00 +10°C° 0.2 mm 9 m/s 746 mmHg 79%
    17:00 +9°C° 0.1 mm 8 m/s 746 mmHg 78%
    18:00 +9°C° 0.1 mm 8 m/s 746 mmHg 76%
    19:00 +9°C° 0.1 mm 8 m/s 746 mmHg 75%
    20:00 +8°C° 0 mm 7 m/s 747 mmHg 74%
    21:00 +8°C° 0 mm 7 m/s 747 mmHg 72%
    22:00 +6°C° 0 mm 7 m/s 747 mmHg 71%
    23:00 +7°C° 0 mm 6 m/s 748 mmHg 71%

    26 Outubro, Sexta-feira

    Tempo Temperatura Precipitação Vento Pressão Humidade
    00:00 +7°C° 0 mm 6 m/s 748 mmHg 71%
    01:00 +5°C° 0 mm 6 m/s 748 mmHg 71%
    02:00 +6°C° 0 mm 5 m/s 748 mmHg 73%
    03:00 +6°C° 0 mm 5 m/s 749 mmHg 75%
    04:00 +6°C° 0 mm 5 m/s 749 mmHg 76%
    05:00 +6°C° 0 mm 5 m/s 749 mmHg 78%
    06:00 +6°C° 0 mm 5 m/s 749 mmHg 79%
    07:00 +6°C° 0 mm 5 m/s 749 mmHg 80%
    08:00 +7°C° 0 mm 5 m/s 749 mmHg 75%
    09:00 +8°C° 0 mm 5 m/s 750 mmHg 70%
    10:00 +9°C° 0 mm 5 m/s 750 mmHg 66%
    11:00 +9°C° 0 mm 5 m/s 749 mmHg 65%
    12:00 +10°C° 0 mm 5 m/s 749 mmHg 65%
    13:00 +11°C° 0 mm 4 m/s 749 mmHg 64%
    14:00 +10°C° 0.9 mm 4 m/s 749 mmHg 72%
    15:00 +8°C° 0.9 mm 4 m/s 748 mmHg 80%
    16:00 +8°C° 0.9 mm 4 m/s 748 mmHg 88%
    17:00 +8°C° 0.8 mm 4 m/s 747 mmHg 87%
    18:00 +8°C° 0.8 mm 5 m/s 747 mmHg 86%
    19:00 +8°C° 0.8 mm 6 m/s 747 mmHg 85%
    20:00 +8°C° 0.1 mm 6 m/s 746 mmHg 85%
    21:00 +7°C° 0.1 mm 6 m/s 746 mmHg 86%
    22:00 +7°C° 0.1 mm 6 m/s 746 mmHg 86%
    23:00 +7°C° 0 mm 6 m/s 745 mmHg 86%
    Mostrar mais